Погода в Опочке

Россия / Псковская область     56°42′50″N   28°39′31″E
темп.,
°C
ветер,
м/с
пор.,
м/с
влажн.,
%
обл.,
%
осадки,
мм/ч
давл.,
гПа
погр.,
м
11 апреля, вс
вс1100:00+4ююз1291100 0.0 102036
03:00+3ю1195100 0.0 102212
06:00+3ю119285 0.0 102311
09:00+6юв1278100 0.0 1024282
12:00+6в248096 0.0 1026339
15:00+8в2581100 0.0 1026426
18:00+8юв388663 0.0 1026427
21:00+6вюв389430 0.0 1026162
12 апреля, пн
пн1200:00+7ююв3119093 0.0 1026212
03:00+6ююв3118997 0.0 1027230
06:00+6ююв41382100 0.0 1026293
09:00+9ююв41370100 0.0 1026437
12:00+14ююв610485 0.0 10251153
15:00+16ююв5941100 0.0 10231651
18:00+15ююв48462 0.0 10211514
21:00+9юв39700 0.0 1021149
13 апреля, вт
вт1300:00+7ююв3117338 0.0 1021245
03:00+6ююв3981100 0.0 1020181
06:00+6ююв378473 0.0 1020150
09:00+9ююв3671100 0.0 1020255
12:00+14ю464966 0.0 1019952
15:00+15зюз475299 0.0 10191299
18:00+11зсз357478 0.0 1019433
21:00+7ссз4787100 0.0 1021409
14 апреля, ср
ср1400:00+5с3785100 0.0 1022445
03:00+5ссз4986100 0.1 1022499
06:00+4с4985100 0.0 1022573
09:00+5с41080100 0.0 1022598
12:00+6ссв5871100 0.0 1023734
15:00+7ссв4963100 0.0 1023880
18:00+5ссв51072100 0.3 1023838
21:00+4ссв51180100 0.6 1023789
15 апреля, чт
чт1500:00+4ссв51176100 0.4 1023761
03:00+3ссв51289100 0.8 1023658
06:00+3ссв51269100 0.2 1023657
09:00+3ссв51270100 0.2 1024635
12:00+4ссв51265100 0.0 1024764
15:00+9ссв694790 0.0 10241206
18:00+9ссв5104698 0.0 10241201
21:00+5св4125779 0.0 1026556